Showing default

COSMOS 2082, 20624

Orbit data source: Space-Track

COSMOS 2082, 20624 is a payload satellite owned by GRU (CIS) in LEO that was launched on Tue, 22 May 1990 UTC via a ZENIT-2 launch vehicle from the Tyuratam Missile And Space Complex (TTMTR). Payload-class satellites include a variety of spacecraft equipped with specific instruments for various scientific and technological missions. These include communications satellites like Starlink; space stations such as the ISS; scientific satellites like the Hubble; Earth observation satellites from companies like Planet Labs, Umbra, and HawkEye 360; GPS; miniature CubeSats for education and research; and military/defense satellites.

Loading next visibility...
Identifier
20624, 1990-046A
Orbit
LEO
Country
Flag of CISCIS
Related business
Manufacturer
Yuzhnoe
Mission
Defense Sigint
Bus & Motor
TSELINA-2, Unknown motor
Mass
3,250 kg wet, 3,250 kg dry
Launch date (UTC)
1990-05-22 (35 years ago)
Launch vehicle
ZENIT-2
Launch site
Tyuratam Missile And Space Complex (TTMTR)
Object type
Payload
Rocket body
Debris
Shape & HBR
Unknown shape, 9.5 m
Radar Cross Section
Large (>1 m²)

Expand to show TLE details & history
Last TLE update: 12 hours ago

TLE from 12 hours ago
0 COSMOS 2082
1 20624U 90046A   25300.46768976  .00000419  00000-0  24160-3 0  9996
2 20624  71.0393 299.8143 0013266  40.9666 319.2451 14.14798043828783
Epoch: 2025-10-27T11:13Z
TLE epoch observation values (Epoch: 2025-10-27T11:13:28.395Z)
Latitude
Longitude
95.37688°
Altitude
838.15 km
Speed
7.438 km/s
True Right ascension
19h 59m 15s
True Declination
0° 00' 00"
Sunlit
Object was in daylight at epoch
Visualization orbit readout
Latitude
Unknown
Longitude
Unknown
Altitude
Unknown
Speed
Unknown
Apparent Right ascension
Unknown
Apparent Declination
Unknown
Sunlit
N/A
Visualization observer readout
Local Sidereal Time
18:25:28
Azimuth
Unknown
Elevation
Unknown
Doppler factor
Unknown
Orbital elements
Apogee altitude
850.497 km
Perigee altitude
831.344 km
Semi-major axis
7,219.057 km
Eccentricity
0.00133
Inclination
71.0393°
RAAN
299.8143°
Arg. of periapsis
40.9666°
True anomaly
319.14573°
Mean anomaly
319.2451°
Eccentric anomaly
319.19543°
Mean motion
3.53853 °/min
Orbital period
101.74 mins
BSTAR
0.0002416
Loading maneuver chart data...
Computing Atmospheric mass density...
Loading historical data...
Loading historical data...
Loading historical data...
Loading historical data...
Loading historical data...
Loading historical data...
Loading historical data...
Other satellites on launch #46 in the year 1990 (1990-05-22 UTC)

Documentation

Showing up to 5 results
|